Location: Peebles
(55.6412°N, 3.1714°W)
Time: 09:24:32
(UTC+01:00)

NOSS 3-3 (A) - Pass Details

Date: 01 February 2022
Orbit: 789 x 1423 km, 63.4° (Epoch: 23 April)

Event Time Altitude Azimuth Distance (km) Brightness Sun altitude
Rises 05:59:11 0° 194° (SSW) 3,373 6.7 -17.8°
Reaches altitude 10° 06:01:40 10° 186° (S) 2,499 6.1 -17.5°
Maximum altitude 06:06:54 37° 121° (ESE) 1,430 5.4 -16.7°
Drops below altitude 10° 06:12:51 10° 57° (ENE) 2,858 7.2 -15.9°
Sets 06:15:52 0° 50° (NE) 3,922 7.8 -15.5°
